GBOYI EGCM-EGCM

Flight info

Callsign GBOYI
Flight time N/A
Altitude 5000
Route UPTON DCT KIM DCT VUSFO
Aircraft P28A/L-SDGRY/S

Departure

Time 2026-04-26 08:59
Airport Leeds East Airport (EGCM)

Arrival

Time N/A
Airport Leeds East Airport (EGCM)
Time Latitude Longitude Altitude Speed Heading
2026-04-26 08:59 53.93173 -1.18085 2252 ft 112 kts 29°
2026-04-26 08:59 53.93977 -1.17655 2402 ft 125 kts
2026-04-26 08:59 53.94777 -1.18142 2557 ft 128 kts 321°
2026-04-26 09:00 53.95493 -1.18907 2913 ft 113 kts 321°
2026-04-26 09:00 53.96140 -1.19706 3067 ft 121 kts 320°
2026-04-26 09:00 53.96910 -1.20443 3178 ft 132 kts 328°
2026-04-26 09:00 53.97742 -1.21149 3319 ft 134 kts 328°
2026-04-26 09:01 53.98573 -1.21872 3497 ft 132 kts 324°
2026-04-26 09:01 53.99374 -1.22530 3737 ft 124 kts 328°
2026-04-26 09:01 54.00137 -1.23147 3974 ft 119 kts 329°
2026-04-26 09:01 54.00912 -1.23789 4025 ft 130 kts 329°
2026-04-26 09:02 54.01760 -1.24491 4033 ft 139 kts 329°
2026-04-26 09:02 54.02646 -1.25225 4039 ft 144 kts 328°
2026-04-26 09:02 54.03550 -1.26006 4038 ft 147 kts 328°
2026-04-26 09:02 54.04468 -1.26801 4032 ft 149 kts 329°
2026-04-26 09:03 54.05387 -1.27621 4034 ft 149 kts 328°
2026-04-26 09:03 54.06310 -1.28440 4033 ft 150 kts 328°
2026-04-26 09:03 54.07236 -1.29247 4034 ft 149 kts 329°
2026-04-26 09:03 54.08163 -1.30051 4029 ft 150 kts 328°
2026-04-26 09:04 54.09091 -1.30849 4030 ft 150 kts 328°
2026-04-26 09:04 54.10022 -1.31651 4029 ft 150 kts 329°
2026-04-26 09:04 54.10935 -1.32451 4025 ft 145 kts 329°
2026-04-26 09:04 54.11825 -1.33220 4021 ft 142 kts 329°
2026-04-26 09:05 54.12695 -1.33996 4016 ft 140 kts 328°
2026-04-26 09:05 54.13564 -1.34752 4014 ft 140 kts 329°
2026-04-26 09:05 54.14419 -1.35487 4015 ft 139 kts 329°
2026-04-26 09:05 54.15297 -1.36236 4016 ft 140 kts 328°
2026-04-26 09:06 54.16170 -1.36974 4019 ft 140 kts 328°
2026-04-26 09:06 54.17038 -1.37729 4018 ft 140 kts 328°
2026-04-26 09:06 54.17902 -1.38489 4019 ft 139 kts 329°
2026-04-26 09:06 54.18762 -1.39253 4019 ft 140 kts 327°
2026-04-26 09:07 54.19625 -1.40009 4019 ft 140 kts 328°
2026-04-26 09:07 54.20490 -1.40766 4019 ft 140 kts 329°
2026-04-26 09:07 54.21369 -1.41465 4009 ft 142 kts 343°
2026-04-26 09:07 54.22356 -1.41032 3787 ft 161 kts 38°
2026-04-26 09:08 54.23063 -1.39539 3533 ft 164 kts 70°
2026-04-26 09:08 54.23464 -1.37761 3271 ft 166 kts 56°
2026-04-26 09:08 54.24240 -1.36286 3057 ft 167 kts 48°
2026-04-26 09:08 54.25018 -1.34867 3046 ft 160 kts 48°
2026-04-26 09:09 54.25763 -1.33490 3043 ft 155 kts 49°
2026-04-26 09:09 54.26496 -1.32156 3041 ft 152 kts 49°
2026-04-26 09:09 54.27220 -1.30843 3039 ft 151 kts 49°
2026-04-26 09:09 54.27947 -1.29541 3036 ft 151 kts 48°
2026-04-26 09:10 54.28669 -1.28242 3034 ft 151 kts 49°
2026-04-26 09:10 54.29391 -1.26942 3032 ft 150 kts 47°
2026-04-26 09:10 54.30096 -1.25645 3032 ft 149 kts 48°
2026-04-26 09:10 54.30812 -1.24348 3034 ft 150 kts 49°
2026-04-26 09:11 54.31542 -1.23060 3035 ft 151 kts 47°
2026-04-26 09:11 54.32264 -1.21743 3040 ft 151 kts 49°
2026-04-26 09:11 54.32988 -1.20436 3033 ft 151 kts 49°
2026-04-26 09:11 54.33713 -1.19139 3040 ft 151 kts 49°
2026-04-26 09:12 54.34234 -1.17657 3028 ft 143 kts 89°
2026-04-26 09:12 54.33861 -1.16258 3032 ft 128 kts 152°
2026-04-26 09:12 54.33042 -1.16232 3035 ft 121 kts 202°
2026-04-26 09:12 54.32272 -1.16815 3042 ft 121 kts 203°
2026-04-26 09:13 54.31754 -1.17195 3045 ft 123 kts 203°
2026-04-26 09:13 54.30961 -1.17763 3050 ft 125 kts 203°
2026-04-26 09:13 54.30158 -1.18345 3049 ft 126 kts 203°
2026-04-26 09:13 54.29361 -1.18915 3053 ft 124 kts 203°
2026-04-26 09:14 54.28565 -1.19461 3045 ft 122 kts 202°
2026-04-26 09:14 54.27778 -1.20030 3040 ft 123 kts 202°
2026-04-26 09:14 54.26993 -1.20609 3040 ft 123 kts 204°
2026-04-26 09:14 54.26208 -1.21153 3036 ft 121 kts 202°
2026-04-26 09:15 54.25425 -1.21692 3037 ft 122 kts 202°
2026-04-26 09:15 54.24636 -1.22260 3041 ft 123 kts 203°
2026-04-26 09:15 54.23836 -1.22833 3038 ft 125 kts 202°
2026-04-26 09:15 54.23038 -1.23417 3037 ft 125 kts 202°
2026-04-26 09:16 54.22248 -1.24004 3036 ft 124 kts 202°
2026-04-26 09:16 54.21456 -1.24584 3038 ft 124 kts 203°
2026-04-26 09:16 54.20663 -1.25159 3038 ft 124 kts 202°
2026-04-26 09:16 54.19870 -1.25733 3038 ft 124 kts 203°
2026-04-26 09:17 54.19076 -1.26290 3037 ft 123 kts 202°
2026-04-26 09:17 54.18282 -1.26836 3037 ft 122 kts 202°
2026-04-26 09:17 54.17512 -1.27388 3034 ft 118 kts 203°
2026-04-26 09:17 54.16752 -1.27941 3031 ft 119 kts 203°
2026-04-26 09:18 54.15982 -1.28491 3034 ft 121 kts 202°
2026-04-26 09:18 54.15214 -1.29032 3035 ft 122 kts 202°
2026-04-26 09:18 54.14423 -1.29595 3033 ft 121 kts 202°
2026-04-26 09:18 54.13643 -1.30144 3032 ft 121 kts 202°
2026-04-26 09:19 54.12860 -1.30683 3033 ft 121 kts 202°
2026-04-26 09:19 54.12087 -1.31189 3029 ft 120 kts 193°
2026-04-26 09:19 54.11271 -1.30906 3034 ft 122 kts 163°
2026-04-26 09:19 54.10463 -1.30412 3035 ft 124 kts 164°
2026-04-26 09:20 54.09641 -1.29920 3036 ft 126 kts 164°
2026-04-26 09:20 54.08816 -1.29407 3037 ft 126 kts 164°
2026-04-26 09:20 54.07990 -1.28893 3040 ft 127 kts 164°
2026-04-26 09:20 54.07163 -1.28372 3042 ft 127 kts 164°
2026-04-26 09:21 54.06330 -1.27847 3046 ft 128 kts 163°
2026-04-26 09:21 54.05481 -1.27321 3046 ft 128 kts 164°
2026-04-26 09:21 54.04642 -1.26804 3046 ft 128 kts 164°
2026-04-26 09:21 54.03804 -1.26289 3049 ft 128 kts 163°
2026-04-26 09:22 54.02979 -1.25787 3049 ft 127 kts 164°
2026-04-26 09:22 54.02147 -1.25277 3049 ft 127 kts 164°
2026-04-26 09:22 54.01309 -1.24747 3048 ft 127 kts 163°
2026-04-26 09:22 54.00485 -1.24222 3047 ft 126 kts 163°
2026-04-26 09:23 53.99673 -1.23709 3048 ft 126 kts 163°
2026-04-26 09:23 53.98850 -1.23186 3042 ft 127 kts 163°
2026-04-26 09:23 53.98021 -1.22665 3042 ft 127 kts 163°
2026-04-26 09:23 53.97185 -1.22151 3042 ft 128 kts 163°
2026-04-26 09:24 53.96352 -1.21639 3042 ft 127 kts 163°
2026-04-26 09:24 53.95523 -1.21123 3043 ft 127 kts 163°
2026-04-26 09:24 53.94690 -1.20612 3043 ft 128 kts 163°
2026-04-26 09:24 53.93851 -1.20103 3045 ft 129 kts 163°
2026-04-26 09:25 53.93005 -1.19591 3046 ft 129 kts 163°
2026-04-26 09:25 53.92159 -1.19067 3046 ft 130 kts 163°
2026-04-26 09:25 53.91314 -1.18538 3046 ft 129 kts 163°
2026-04-26 09:25 53.90480 -1.18011 3045 ft 128 kts 163°
2026-04-26 09:26 53.89648 -1.17487 3045 ft 127 kts 163°
2026-04-26 09:26 53.88820 -1.16977 3043 ft 126 kts 164°
2026-04-26 09:26 53.87992 -1.16476 3044 ft 127 kts 163°
2026-04-26 09:26 53.87155 -1.15963 3045 ft 128 kts 163°
2026-04-26 09:27 53.86316 -1.15449 3040 ft 128 kts 163°
2026-04-26 09:27 53.85476 -1.14928 3041 ft 128 kts 163°
2026-04-26 09:27 53.84637 -1.14404 3041 ft 129 kts 163°
2026-04-26 09:27 53.83796 -1.13873 3042 ft 129 kts 163°
2026-04-26 09:28 53.82960 -1.13342 3043 ft 128 kts 163°
2026-04-26 09:28 53.82126 -1.12811 3044 ft 128 kts 163°
2026-04-26 09:28 53.81288 -1.12277 3042 ft 129 kts 163°
2026-04-26 09:28 53.80469 -1.11688 3005 ft 132 kts 146°
2026-04-26 09:29 53.80285 -1.10165 2153 ft 153 kts 70°
2026-04-26 09:29 53.80925 -1.08810 1798 ft 127 kts 49°
2026-04-26 09:29 53.81506 -1.07830 1879 ft 118 kts 50°
2026-04-26 09:29 53.82180 -1.07034 2080 ft 119 kts 36°
2026-04-26 09:30 53.82890 -1.06311 2272 ft 120 kts 34°
2026-04-26 09:30 53.83653 -1.05685 2398 ft 128 kts 18°
2026-04-26 09:30 53.84678 -1.05415 1425 ft 185 kts
2026-04-26 09:30 53.85925 -1.05123 1258 ft 172 kts 11°
2026-04-26 09:31 53.87043 -1.04862 1246 ft 153 kts 10°
2026-04-26 09:31 53.88065 -1.04713 1223 ft 140 kts 358°
2026-04-26 09:31 53.89033 -1.04865 1422 ft 138 kts 351°
2026-04-26 09:31 53.89937 -1.05262 1631 ft 132 kts 340°
2026-04-26 09:32 53.90829 -1.06055 1254 ft 152 kts 330°
2026-04-26 09:32 53.91786 -1.06857 1183 ft 162 kts 339°
2026-04-26 09:32 53.92839 -1.07563 904 ft 166 kts 337°
2026-04-26 09:32 53.93893 -1.08353 626 ft 162 kts 341°
2026-04-26 09:33 53.94926 -1.07964 437 ft 152 kts 13°
2026-04-26 09:33 53.95952 -1.08050 475 ft 119 kts 345°
2026-04-26 09:33 53.96236 -1.08003 695 ft 117 kts 38°
2026-04-26 09:33 53.96940 -1.07274 889 ft 117 kts 38°
2026-04-26 09:34 53.97450 -1.06536 1215 ft 94 kts 82°
2026-04-26 09:34 53.97396 -1.06242 1286 ft 83 kts 150°
2026-04-26 09:34 53.97004 -1.06229 1300 ft 96 kts 179°
2026-04-26 09:35 53.96325 -1.06383 1424 ft 105 kts 199°
2026-04-26 09:35 53.95672 -1.07032 1566 ft 111 kts 206°
2026-04-26 09:35 53.95000 -1.07712 1703 ft 114 kts 206°
2026-04-26 09:35 53.94319 -1.08408 1843 ft 114 kts 207°
2026-04-26 09:36 53.93636 -1.09109 1973 ft 115 kts 207°
2026-04-26 09:36 53.92951 -1.09812 2118 ft 115 kts 207°
2026-04-26 09:36 53.92268 -1.10514 2239 ft 114 kts 207°
2026-04-26 09:36 53.91592 -1.11208 2368 ft 113 kts 207°
2026-04-26 09:37 53.90899 -1.11917 2336 ft 124 kts 208°
2026-04-26 09:37 53.90112 -1.12724 2097 ft 137 kts 208°
2026-04-26 09:37 53.89287 -1.13579 2049 ft 138 kts 208°
2026-04-26 09:37 53.88468 -1.14418 2052 ft 137 kts 207°
2026-04-26 09:38 53.87625 -1.15096 2043 ft 132 kts 185°
2026-04-26 09:38 53.86722 -1.15012 2050 ft 129 kts 173°
2026-04-26 09:38 53.85827 -1.14904 2051 ft 129 kts 174°
2026-04-26 09:38 53.84923 -1.14796 2051 ft 131 kts 174°
2026-04-26 09:39 53.84013 -1.14682 2048 ft 132 kts 174°
2026-04-26 09:39 53.83116 -1.14664 2046 ft 132 kts 191°
2026-04-26 09:39 53.82361 -1.15551 2049 ft 134 kts 218°
2026-04-26 09:39 53.81993 -1.16994 2046 ft 142 kts 263°
2026-04-26 09:40 53.82264 -1.18631 2044 ft 144 kts 281°
2026-04-26 09:40 53.82367 -1.20325 2049 ft 144 kts 268°
2026-04-26 09:40 53.82423 -1.21995 2050 ft 144 kts 269°
2026-04-26 09:40 53.82287 -1.23646 2042 ft 139 kts 247°
2026-04-26 09:41 53.82066 -1.25211 2034 ft 144 kts 269°
2026-04-26 09:41 53.82606 -1.26700 1791 ft 161 kts 325°
2026-04-26 09:41 53.83692 -1.27102 1521 ft 161 kts 359°
2026-04-26 09:41 53.84685 -1.26484 1235 ft 153 kts 50°
2026-04-26 09:42 53.85104 -1.25068 1046 ft 116 kts 75°
2026-04-26 09:42 53.85322 -1.24122 1032 ft 93 kts 74°
2026-04-26 09:42 53.85553 -1.23233 958 ft 75 kts 75°
2026-04-26 09:42 53.85802 -1.22460 858 ft 75 kts 66°
2026-04-26 09:43 53.86048 -1.21739 901 ft 72 kts 68°
2026-04-26 09:43 53.86392 -1.21048 997 ft 78 kts 44°
2026-04-26 09:43 53.86857 -1.20443 1060 ft 84 kts 44°
2026-04-26 09:43 53.87230 -1.19707 1170 ft 84 kts 66°
2026-04-26 09:44 53.87271 -1.19598 1181 ft 85 kts 66°
2026-04-26 09:44 53.87442 -1.19089 1201 ft 89 kts 69°
2026-04-26 09:45 53.87704 -1.18100 1285 ft 95 kts 75°
2026-04-26 09:45 53.87729 -1.17986 1284 ft 96 kts 76°
2026-04-26 09:45 53.87736 -1.17337 1423 ft 75 kts 147°
2026-04-26 09:45 53.87329 -1.17898 1424 ft 88 kts 231°
2026-04-26 09:46 53.86842 -1.17799 1505 ft 80 kts 173°
2026-04-26 09:46 53.86262 -1.17961 1437 ft 88 kts 186°
2026-04-26 09:46 53.85670 -1.18083 1180 ft 81 kts 183°
2026-04-26 09:46 53.85133 -1.17954 860 ft 77 kts 163°
2026-04-26 09:47 53.84614 -1.17678 442 ft 80 kts 162°
2026-04-26 09:47 53.84146 -1.17920 167 ft 76 kts 217°
2026-04-26 09:47 53.83859 -1.18576 43 ft 64 kts 223°
2026-04-26 09:47 53.83613 -1.19151 26 ft 53 kts 233°
2026-04-26 09:48 53.83342 -1.19835 177 ft 79 kts 230°
2026-04-26 09:48 53.83036 -1.20691 457 ft 88 kts 230°
2026-04-26 09:48 53.82980 -1.21766 682 ft 109 kts 291°
2026-04-26 09:48 53.83344 -1.22746 1023 ft 104 kts 297°